Location: Bretagne
(43.8474°N, 0.4650°W)
Time: 20:43:12
(UTC+00:00)

Envisat - Visible Passes

Search period start: 08 March 2026 00:00
Search period end: 18 March 2026 00:00
Orbit: 761 x 763 km, 98.4° (Epoch: 8 March)

Date Brightness Start Highest point End Pass type
(mag) Time Alt. Az. Time Alt. Az. Time Alt. Az.
8 Mar 5.8 02:14:46 10° NNE 02:15:21 13° NNE 02:15:21 13° NNE visible
8 Mar 5.1 03:54:13 10° N 03:55:28 16° NNW 03:55:28 16° NNW visible
9 Mar 5.0 03:15:51 10° N 03:17:21 19° N 03:17:21 19° N visible
10 Mar 5.4 02:37:56 10° NNE 02:39:14 18° NNE 02:39:14 18° NNE visible
10 Mar 5.1 04:18:20 10° NNW 04:19:22 13° NNW 04:19:22 13° NNW visible
11 Mar 5.8 02:00:32 10° NNE 02:01:06 13° NE 02:01:06 13° NE visible
11 Mar 4.9 03:39:28 10° N 03:41:14 20° NNW 03:41:14 20° NNW visible
12 Mar 4.9 03:01:18 10° N 03:03:07 22° N 03:03:07 22° N visible
13 Mar 5.4 02:23:33 10° NNE 02:25:00 19° NNE 02:25:00 19° NNE visible
13 Mar 4.9 04:03:21 10° NNW 04:05:07 17° NNW 04:05:07 17° NNW visible
14 Mar 5.9 01:46:25 10° NE 01:46:52 12° NE 01:46:52 12° NE visible
14 Mar 4.7 03:24:48 10° N 03:26:59 24° NNW 03:26:59 24° NNW visible
15 Mar 4.9 02:46:48 10° NNE 02:48:52 25° NNE 02:48:52 25° NNE visible
15 Mar 5.0 04:27:41 10° NNW 04:29:01 13° NW 04:29:01 13° NW visible
16 Mar 5.4 02:09:16 10° NNE 02:10:45 18° NE 02:10:45 18° NE visible
16 Mar 4.6 03:48:31 10° N 03:50:53 22° NNW 03:50:53 22° NNW visible
17 Mar 6.0 01:32:29 10° NE 01:32:37 10° NE 01:32:37 10° NE visible
17 Mar 4.5 03:10:13 10° N 03:12:46 29° N 03:12:46 29° N visible
